Location: Newark
(50.2575°N, 28.6575°E)
Time: 08:53:23
(UTC+00:00)

Envisat - Visible Passes

Search period start: 18 September 2020 00:00
Search period end: 28 September 2020 00:00
Orbit: 764 x 766 km, 98.1° (Epoch: 18 September)

Date Brightness Start Highest point End Pass type
(mag) Time Alt. Az. Time Alt. Az. Time Alt. Az.
18 Sep 6.2 02:50:51 10° NE 02:53:40 15° E 02:56:29 10° ESE visible
19 Sep 6.4 16:53:06 10° WSW 16:55:35 14° W 16:58:04 10° NW visible
20 Sep 5.8 03:15:21 10° NE 03:19:26 24° E 03:23:30 10° SE visible
21 Sep 6.5 02:40:19 10° ENE 02:42:09 12° E 02:43:57 10° ESE visible
22 Sep 6.2 16:40:50 10° SW 16:44:03 17° W 16:47:18 10° NW visible
23 Sep 6.0 03:04:18 10° NE 03:07:57 20° E 03:11:36 10° SE visible
25 Sep 6.0 16:28:48 10° SW 16:32:34 21° W 16:36:20 10° NW visible
26 Sep 6.2 02:53:22 10° NE 02:56:27 16° E 02:59:31 10° SE visible
27 Sep 6.5 16:56:14 10° WSW 16:58:22 12° W 17:00:29 10° WNW visible
